Trenton, NJ

11:12 AM EST on February 20, 2017 (GMT -0500)
Trenton Mercer

Weather History for KTTN - March, 2014

Change the Weather History Date:

Thursday, March 13, 2014

  Actual Average Record
Temperature  
Mean Temperature 24 °F 40 °F  
Max Temperature 30 °F 50 °F 81 °F (1990)
Min Temperature 19 °F 31 °F 6 °F (1888)
Degree Days  
Heating Degree Days 40 25  
Month to date heating degree days 342  
Since 1 July heating degree days 4156  
Cooling Degree Days 0 0  
Month to date cooling degree days 0  
Year to date cooling degree days 0  
Moisture  
Dew Point 3 °F    
Average Humidity 42    
Maximum Humidity 63    
Minimum Humidity 24    
Precipitation  
Precipitation 0.00 in 0.12 in 2.40 in (1993)
Month to date precipitation 1.61  
Year to date precipitation 7.08  
Sea Level Pressure  
Sea Level Pressure 29.64 in    
Wind  
Wind Speed 19 mph (NW)    
Max Wind Speed 25 mph    
Max Gust Speed 44 mph    
Visibility 10 miles    
Events Snow    
T = Trace of Precipitation, MM = Missing Value Source: NWS Daily Summary

Daily Weather History Graph

Daily Weather History Graph

Search for Another Location

Airport or City:

Trip Planner

Search our weather history database for the weather conditions in past years. The results will help you decide how hot, cold, wet, or windy it might be!

Date:

Astronomy

Mar. 13, 2014 Rise Set
Actual Time 7:14 AM EDT 7:03 PM EDT
Civil Twilight 6:46 AM EDT 7:31 PM EDT
Nautical Twilight 6:15 AM EDT 8:02 PM EDT
Astronomical Twilight 5:43 AM EDT 8:34 PM EDT
Moon 4:27 PM EDT (3/13) 5:19 AM EDT (3/13)
Length of Visible Light 12h 44m
Length of Day
11h 49m
Waxing Gibbous, 91% of the Moon is Illuminated
Mar 13
Waxing Gibbous
Mar 16
Full
Mar 23
Last Quarter
Mar 30
New
Apr 7
First Quarter

Hourly Weather History & Observations

Time (EDT) Temp. Windchill Dew Point Humidity Pressure Visibility Wind Dir Wind Speed Gust Speed Precip Events Conditions
12:13 AM 27.0 °F 12.5 °F 16.0 °F 63% 29.24 in 10.0 mi NNW 23.0 mph 43.7 mph N/A   Scattered Clouds
12:33 AM 27.0 °F 12.2 °F 15.1 °F 61% 29.29 in 10.0 mi NW 24.2 mph 36.8 mph N/A   Mostly Cloudy
12:53 AM 26.1 °F 12.7 °F 14.0 °F 60% 29.30 in 10.0 mi NW 18.4 mph 33.4 mph N/A   Overcast
1:09 AM 25.0 °F 11.3 °F 12.9 °F 60% 29.32 in 10.0 mi NW 18.4 mph 33.4 mph N/A   Overcast
1:53 AM 23.0 °F 6.6 °F 9.0 °F 55% 29.33 in 10.0 mi NNW 25.3 mph 38.0 mph N/A   Overcast
2:53 AM 21.0 °F 7.1 °F 7.0 °F 55% 29.35 in 10.0 mi NNW 16.1 mph 39.1 mph N/A   Mostly Cloudy
3:53 AM 19.0 °F 2.0 °F 3.0 °F 50% 29.40 in 10.0 mi NW 23.0 mph 42.6 mph N/A   Clear
4:53 AM 19.0 °F 2.4 °F 6.1 °F 57% 29.46 in 9.0 mi NW 21.9 mph 36.8 mph 0.00 in Snow Light Snow
5:07 AM 19.0 °F 3.2 °F 7.0 °F 59% 29.48 in 10.0 mi NNW 19.6 mph 33.4 mph 0.00 in   Overcast
5:23 AM 19.0 °F 3.2 °F 3.9 °F 52% 29.49 in 10.0 mi NNW 19.6 mph 33.4 mph 0.00 in   Mostly Cloudy
5:53 AM 19.0 °F 4.0 °F 1.9 °F 47% 29.50 in 10.0 mi NW 17.3 mph 33.4 mph 0.00 in   Partly Cloudy
6:53 AM 19.0 °F 3.2 °F 1.9 °F 47% 29.54 in 10.0 mi NW 19.6 mph 36.8 mph N/A   Clear
7:53 AM 19.0 °F 3.2 °F 3.0 °F 50% 29.58 in 10.0 mi WNW 19.6 mph 28.8 mph N/A   Clear
8:53 AM 19.0 °F 5.6 °F 3.0 °F 50% 29.62 in 10.0 mi NNW 13.8 mph 27.6 mph N/A   Scattered Clouds
9:53 AM 21.0 °F 5.7 °F 3.0 °F 46% 29.65 in 10.0 mi NW 19.6 mph 29.9 mph N/A   Overcast
10:53 AM 21.9 °F 5.5 °F 1.9 °F 42% 29.69 in 10.0 mi NW 24.2 mph 35.7 mph N/A   Partly Cloudy
11:53 AM 24.1 °F 10.1 °F 3.9 °F 42% 29.70 in 10.0 mi WNW 18.4 mph 34.5 mph N/A   Partly Cloudy
12:53 PM 26.1 °F 13.1 °F 3.9 °F 39% 29.72 in 10.0 mi NW 17.3 mph 33.4 mph N/A   Partly Cloudy
1:53 PM 28.0 °F 14.3 °F -0.9 °F 29% 29.73 in 10.0 mi NW 21.9 mph 31.1 mph N/A   Clear
2:53 PM 28.9 °F 17.7 °F -2.0 °F 26% 29.75 in 10.0 mi NW 15.0 mph 36.8 mph N/A   Clear
3:53 PM 30.0 °F 19.1 °F -2.9 °F 24% 29.78 in 10.0 mi NW 15.0 mph 29.9 mph N/A   Clear
4:53 PM 30.0 °F 18.7 °F -2.9 °F 24% 29.80 in 10.0 mi NW 16.1 mph 26.5 mph N/A   Clear
5:53 PM 30.0 °F 17.5 °F -2.0 °F 25% 29.85 in 10.0 mi WNW 19.6 mph 32.2 mph N/A   Clear
6:53 PM 28.9 °F 17.3 °F -2.9 °F 25% 29.91 in 10.0 mi WNW 16.1 mph 25.3 mph N/A   Clear
7:53 PM 27.0 °F 18.0 °F -4.0 °F 26% 29.95 in 10.0 mi NW 9.2 mph 20.7 mph N/A   Clear
8:53 PM 27.0 °F 18.7 °F -4.0 °F 26% 30.00 in 10.0 mi NW 8.1 mph - N/A   Clear
9:53 PM 27.0 °F 18.0 °F -5.1 °F 25% 30.05 in 10.0 mi NW 9.2 mph 18.4 mph N/A   Clear
10:53 PM 26.1 °F 20.5 °F -4.0 °F 27% 30.08 in 10.0 mi WNW 4.6 mph - N/A   Clear
11:53 PM 25.0 °F 18.1 °F -2.9 °F 30% 30.10 in 10.0 mi NW 5.8 mph - N/A   Clear